[[{"header":{"parameterUnit":"m.s-1","parameterCategory":1,"la1":30.2992,"la2":30.254,"lo1":-89.0895,"lo2":-89.0443,"dy":0.0025,"dx":0.0025,"nx":19,"ny":19,"refTime":"2026-03-16T21:00:00:Z","depth":0,"parameterNumber":2,"parameterNumberName":"U-component_of_WINDS"},"data":[0,0,0,1.0507,1.0507,1.0494,1.0494,1.0473,1.0473,0,0,0,0,0,0,0,0,0,0,0,1.0509,1.0508,1.0507,1.0507,1.0494,1.0494,1.0473,1.0473,0,0,0,0,0,0,0,0,0,0,0,1.0509,1.0508,1.0508,1.0507,1.0494,1.0494,1.0473,1.0484,0,0,0,0,0,0,0,0,0,0,1.0497,1.0496,1.0508,1.0508,1.0507,1.0494,1.0494,1.0485,1.0484,1.0477,0,1.0471,0,1.0472,1.0471,1.0471,0,0,0,1.0508,1.0497,1.0496,1.0508,1.0506,1.0494,1.05,1.0484,1.0483,1.0475,1.0471,1.047,1.0472,1.0471,1.0471,1.0432,1.0432,0,0,1.0509,1.0505,1.0497,1.0495,1.0498,1.0501,1.05,1.0483,1.0478,1.0471,1.047,1.0471,1.0471,1.0471,1.0432,1.0432,0,0,0,1.051,1.0505,1.0504,1.0496,1.0494,1.05,1.0499,1.0479,1.0479,1.047,1.0471,1.0471,1.047,1.0433,1.0432,1.0416,0,0,0,1.051,1.0506,1.0505,1.0502,1.0495,1.0486,1.0495,1.048,1.0478,1.0471,1.0471,1.047,1.0433,1.0432,1.0417,1.0409,0,0,0,1.051,1.0506,1.0503,1.0502,1.0496,1.0487,1.0486,1.048,1.0479,1.0471,1.047,1.0433,1.0432,1.0418,1.041,1.0398,0,0,0,1.0508,1.0488,1.0503,1.0481,1.0496,1.0478,1.0486,1.0472,1.0464,1.0471,1.0433,1.0432,1.0419,1.0411,1.0399,1.0386,1.038,0,0,1.048,1.0484,1.0472,1.0485,1.0463,1.048,1.0455,1.045,1.0453,1.0439,1.0438,1.0417,1.041,1.0398,1.0353,1.0348,0,0,0,1.0462,1.0453,1.0448,1.044,1.0438,1.0435,1.0435,1.0434,1.0422,1.0445,1.041,1.0406,1.0399,1.0393,1.0389,1.0383,1.043,1.043,1.043,1.0414,1.0421,1.0401,1.0406,1.0399,1.0401,1.0396,1.0394,1.0401,1.0392,1.0388,1.0359,1.0352,1.035,1.0343,1.0382,1.0382,1.0382,1.0382,1.0374,1.0362,1.0374,1.0359,1.0366,1.0354,1.0355,1.0361,1.035,1.0363,1.0357,1.0369,1.0345,1.034,1.0381,1.0381,1.0381,1.0381,1.0381,1.0342,1.0338,1.0338,1.033,1.0323,1.0329,1.0319,1.0325,1.0331,1.0325,1.0321,1.0322,1.0322,1.0323,1.0323,1.0323,1.0323,1.0323,1.0323,1.0309,1.0311,1.0302,1.0299,1.0297,1.0294,1.0298,1.0295,1.0293,1.0299,1.0299,1.0307,1.0342,1.035,1.0321,1.0322,1.0322,1.0322,1.0322,1.0264,1.0276,1.0262,1.0259,1.0258,1.0251,1.0261,1.0256,1.0254,1.0249,1.026,1.0285,1.0289,1.0292,1.0299,1.0259,1.0259,1.0259,1.0259,1.0237,1.0241,1.0229,1.0225,1.0222,1.023,1.0214,1.0218,1.0223,1.0223,1.023,1.024,1.0243,1.0246,1.025,1.0256,1.0206,1.0206,1.0206,1.0209,1.0213,1.0198,1.0205,1.0206,1.0206,1.0192,1.0187,1.0195,1.0204,1.0223,1.0225,1.0242,1.0247,1.0253,1.0259,1.0271,0,0]},{"header":{"parameterUnit":"m.s-1","parameterCategory":1,"la1":30.2992,"la2":30.254,"lo1":-89.0895,"lo2":-89.0443,"dy":0.0025,"dx":0.0025,"nx":19,"ny":19,"refTime":"2026-03-16T21:00:00:Z","depth":0,"parameterNumber":3,"parameterNumberName":"V-component_of_WINDS"},"data":[0,0,0,-6.5286,-6.5292,-6.5532,-6.5533,-6.585,-6.5853,0,0,0,0,0,0,0,0,0,0,0,-6.5226,-6.5228,-6.5286,-6.5292,-6.5532,-6.5533,-6.585,-6.5853,0,0,0,0,0,0,0,0,0,0,0,-6.5225,-6.5228,-6.5231,-6.5293,-6.5532,-6.5533,-6.5849,-6.5663,0,0,0,0,0,0,0,0,0,0,-6.5428,-6.5384,-6.5227,-6.5231,-6.5295,-6.5532,-6.5533,-6.5654,-6.5675,-6.5747,0,-6.5818,0,-6.5841,-6.5876,-6.5877,0,0,0,-6.5283,-6.5367,-6.5422,-6.5232,-6.5297,-6.5531,-6.5421,-6.5666,-6.5689,-6.5775,-6.5823,-6.5834,-6.5847,-6.5878,-6.588,-6.6335,-6.6337,0,0,-6.527,-6.5274,-6.5406,-6.5438,-6.5406,-6.5414,-6.5429,-6.568,-6.573,-6.5824,-6.5841,-6.5852,-6.588,-6.5883,-6.6333,-6.6336,0,0,0,-6.5238,-6.5265,-6.5314,-6.5425,-6.5468,-6.5421,-6.5438,-6.5719,-6.5735,-6.5845,-6.5856,-6.5882,-6.5886,-6.633,-6.6334,-6.6464,0,0,0,-6.523,-6.5246,-6.5309,-6.5313,-6.5464,-6.5598,-6.5473,-6.5718,-6.5746,-6.5854,-6.5882,-6.5889,-6.6327,-6.6332,-6.6454,-6.6524,0,0,0,-6.5206,-6.5243,-6.5282,-6.5313,-6.5417,-6.5593,-6.5623,-6.5724,-6.5753,-6.5877,-6.589,-6.6325,-6.6331,-6.6446,-6.651,-6.6645,0,0,0,-6.5182,-6.5394,-6.5285,-6.5525,-6.5415,-6.5674,-6.5622,-6.5813,-6.5935,-6.5884,-6.6328,-6.6333,-6.6443,-6.6502,-6.6635,-6.6758,-6.681,0,0,-6.5452,-6.5427,-6.5568,-6.5477,-6.5756,-6.5636,-6.5933,-6.604,-6.6046,-6.6237,-6.6248,-6.6458,-6.6509,-6.6643,-6.71,-6.7142,0,0,0,-6.5655,-6.5756,-6.5829,-6.5947,-6.6035,-6.6115,-6.6176,-6.6214,-6.6377,-6.6147,-6.6543,-6.6573,-6.6651,-6.6709,-6.6744,-6.681,-6.6361,-6.636,-6.636,-6.6041,-6.604,-6.6272,-6.63,-6.6414,-6.6474,-6.6565,-6.6627,-6.6591,-6.6684,-6.6741,-6.7019,-6.7088,-6.7114,-6.7182,-6.6806,-6.6807,-6.6807,-6.6807,-6.6435,-6.6578,-6.6525,-6.6732,-6.6728,-6.6899,-6.6964,-6.6932,-6.7089,-6.6977,-6.7045,-6.6922,-6.716,-6.7219,-6.6817,-6.6816,-6.6814,-6.6813,-6.6813,-6.6688,-6.6756,-6.6801,-6.6969,-6.7098,-6.7116,-6.727,-6.726,-6.7251,-6.7319,-6.7376,-6.7374,-6.7369,-6.7347,-6.7348,-6.7349,-6.735,-6.735,-6.7351,-6.6932,-6.6979,-6.7111,-6.7221,-6.7294,-6.7388,-6.7449,-6.7519,-6.7593,-6.7573,-6.7574,-6.7527,-6.7184,-6.7097,-6.7366,-6.7363,-6.7361,-6.736,-6.7359,-6.7331,-6.7239,-6.7443,-6.7517,-6.7643,-6.777,-6.7755,-6.7898,-6.7954,-6.8029,-6.7968,-6.7716,-6.7689,-6.7661,-6.7589,-6.7969,-6.7969,-6.7969,-6.7969,-6.7543,-6.7529,-6.7735,-6.7852,-6.7965,-6.7972,-6.8198,-6.8246,-6.828,-6.8313,-6.8257,-6.8161,-6.8133,-6.8122,-6.8084,-6.8016,-6.8497,-6.8497,-6.8498,-6.7787,-6.7783,-6.7981,-6.8016,-6.8113,-6.8195,-6.8407,-6.854,-6.8559,-6.8519,-6.8339,-6.8317,-6.8161,-6.8111,-6.8067,-6.8008,-6.7884,0,0]}]]